EDT,Max TemperatureF,Mean TemperatureF,Min TemperatureF,Max Dew PointF,MeanDew PointF,Min DewpointF,Max Humidity, Mean Humidity, Min Humidity, Max Sea Level PressureIn, Mean Sea Level PressureIn, Min Sea Level PressureIn, Max VisibilityMiles, Mean VisibilityMiles, Min VisibilityMiles, Max Wind SpeedMPH, Mean Wind SpeedMPH, Max Gust SpeedMPH,PrecipitationIn, CloudCover, Events, WindDirDegrees
2011-10-1,42,38,33,37,33,30,100,86,65,29.92,29.86,29.78,10,8,0,22,15,34,0.04,7,Rain-Snow,299
2011-10-2,39,36,33,36,32,28,100,89,75,29.97,29.91,29.86,10,9,3,26,18,38,0.00,8,Snow,292
2011-10-3,42,38,33,39,36,34,100,98,81,30.10,30.02,29.92,10,5,0,22,17,26,0.00,8,Fog-Rain-Snow,282
2011-10-4,51,46,42,46,45,43,100,90,76,30.32,30.29,30.25,10,9,0,22,14,26,0.00,6,Fog,298
2011-10-5,66,54,42,46,43,37,100,76,43,30.37,30.34,30.31,10,10,7,16,11,18,0.00,0,,308
2011-10-6,60,56,51,50,45,39,82,72,58,30.46,30.42,30.39,10,10,10,9,5,,0.00,0,,100
2011-10-7,64,54,44,52,48,32,93,74,47,30.54,30.49,30.44,10,10,2,8,4,,0.00,0,,133
2011-10-8,64,56,48,52,48,45,100,81,59,30.61,30.57,30.54,10,9,1,8,5,,0.00,0,,122
2011-10-9,66,57,48,46,42,32,87,59,36,30.57,30.52,30.48,10,10,10,9,6,,0.00,0,,93
2011-10-10,66,60,55,48,46,43,77,60,46,30.47,30.39,30.31,10,10,7,12,7,18,0.00,0,,82
2011-10-11,60,56,51,52,48,45,100,74,59,30.29,30.22,30.13,10,10,2,13,9,20,0.00,6,Rain,89
2011-10-12,57,54,50,57,54,50,100,100,100,30.10,29.97,29.93,1,0,0,17,10,25,1.37,8,Rain,84
2011-10-13,59,57,55,59,57,55,100,100,100,29.92,29.80,29.67,10,1,0,14,4,22,0.52,8,Fog-Rain,112
2011-10-14,53,50,46,54,46,32,100,86,47,29.68,29.63,29.59,10,6,0,30,17,43,0.21,6,Rain,266
2011-10-15,46,44,42,34,32,30,70,61,53,30.03,29.96,29.85,10,10,10,23,21,34,0.00,0,,267
2011-10-16,66,54,42,41,36,30,71,56,37,30.12,30.05,29.97,10,10,10,23,19,33,0.00,0,,263
2011-10-17,64,58,53,48,41,27,77,53,24,29.98,29.94,29.91,10,10,10,28,21,39,0.00,1,,267
2011-10-18,66,58,51,54,48,36,82,64,47,29.97,29.93,29.85,10,10,10,12,8,16,0.00,1,,204
2011-10-19,53,52,50,54,51,48,100,99,82,29.76,29.56,29.37,10,2,0,16,12,26,0.35,8,Fog-Rain-Thunderstorm,99
2011-10-20,41,38,35,41,36,34,100,95,76,29.75,29.55,29.40,10,8,0,28,22,38,0.00,8,Rain,256
2011-10-21,42,38,33,36,35,34,100,92,76,30.10,29.98,29.81,10,10,4,34,23,44,0.00,8,,281
2011-10-22,51,43,35,36,34,32,93,75,50,30.17,30.13,30.10,10,10,10,13,8,22,0.00,1,,282
2011-10-23,53,46,39,37,34,32,76,65,44,30.18,30.14,30.11,10,10,10,10,4,,0.00,0,,270
2011-10-24,60,53,46,45,39,34,87,65,45,30.17,30.13,30.08,10,10,10,20,10,31,0.00,2,,264
2011-10-25,60,50,39,39,35,32,87,65,36,30.30,30.23,30.17,10,10,10,21,12,26,0.00,0,,285
2011-10-26,57,54,50,48,41,36,94,64,47,30.18,30.06,29.97,10,10,10,24,14,30,0.02,2,Rain-Thunderstorm,257
2011-10-27,53,48,44,52,48,43,100,88,77,29.91,29.84,29.77,10,9,0,29,20,37,0.00,7,Rain,271
2011-10-28,35,32,28,36,30,27,100,92,75,30.15,30.08,30.04,10,8,0,15,8,20,0.00,8,Rain-Snow,75
2011-10-29,30,28,26,30,28,27,100,98,86,30.01,29.95,29.91,10,3,0,16,9,28,0.31,7,Fog-Snow,345
2011-10-30,42,35,28,28,28,25,100,81,53,30.27,30.18,30.05,10,10,10,10,7,,0.05,2,,284
2011-10-31,37,34,30,30,29,28,93,80,70,30.28,30.24,30.18,10,10,10,13,8,18,0.00,2,,159